This is the latest recevied weather packets stored in our database for station/object W4SKW. If no packets are shown the sender has not sent any weather packets the latest 10 day(s).
| Time | Temp. | Humidity | Pressure | Rain* | Wind** | Luminosity | Snow |
|---|---|---|---|---|---|---|---|
| 1778009429 | 26.67° C | 47% | 1014.7 hPa | 0 mm | - | 391 W/m² | - |
| 1778009127 | 26.67° C | 44% | 1014.8 hPa | 0 mm | - | 564 W/m² | - |
| 1778008824 | 26.11° C | 43% | 1014.9 hPa | 0 mm | - | 566 W/m² | - |
| 1778008517 | 26.11° C | 43% | 1014.9 hPa | 0 mm | - | 566 W/m² | - |
| 1778008214 | 26.11° C | 40% | 1015 hPa | 0 mm | - | 513 W/m² | - |
| 1778007909 | 25.56° C | 43% | 1015 hPa | 0 mm | - | 571 W/m² | - |
| 1778007604 | 26.11° C | 39% | 1015.2 hPa | 0 mm | - | 377 W/m² | - |
| 1778007296 | 26.67° C | 37% | 1015.3 hPa | 0 mm | - | 416 W/m² | - |
| 1778006993 | 26.11° C | 40% | 1015.3 hPa | 0 mm | - | 609 W/m² | - |
| 1778006690 | 25.56° C | 49% | 1015.3 hPa | 0 mm | - | 547 W/m² | - |
| 1778006386 | 25.56° C | 49% | 1015.3 hPa | 0 mm | - | 547 W/m² | - |
| 1778006083 | 26.11° C | 44% | 1015.2 hPa | 0 mm | - | 442 W/m² | - |
| 1778005780 | 26.11° C | 45% | 1015.2 hPa | 0 mm | - | 718 W/m² | - |
| 1778005477 | 26.11° C | 51% | 1015.2 hPa | 0 mm | - | 603 W/m² | - |
| 1778005173 | 26.11° C | 45% | 1015.6 hPa | 0 mm | - | 770 W/m² | - |
| 1778004870 | 25.56° C | 45% | 1015.4 hPa | 0 mm | - | 843 W/m² | - |
| 1778004567 | 25.56° C | 48% | 1015.6 hPa | 0 mm | - | 720 W/m² | - |
| 1778004263 | 25.56° C | 46% | 1015.3 hPa | 0 mm | - | 540 W/m² | - |
| 1778003960 | 26.11° C | 51% | 1015.3 hPa | 0 mm | - | 673 W/m² | - |
| 1778003656 | 25.56° C | 55% | 1015.3 hPa | 0 mm | - | 679 W/m² | - |
| 1778003353 | 25.56° C | 51% | 1015.7 hPa | 0 mm | - | 651 W/m² | - |
| 1778003051 | 25.56° C | 47% | 1015.8 hPa | 0 mm | - | 713 W/m² | - |
| 1778002747 | 25.56° C | 48% | 1016 hPa | 0 mm | - | 784 W/m² | - |
| 1778002443 | 25° C | 48% | 1016.2 hPa | 0 mm | - | 606 W/m² | - |
| 1778002140 | 25° C | 53% | 1016.6 hPa | 0 mm | - | 751 W/m² | - |
* Rain latest hour (hover to see other rain measurements)
** Current wind speed in m/s (hover to see current wind gust speed)